Weather History for Hyannis, MA

Change the Weather History Date:

Saturday, November 19, 2011

  Actual Average Record
Temperature  
Mean Temperature 40 °F -  
Max Temperature 54 °F 50 °F 65 °F (1978)
Min Temperature 27 °F 33 °F 13 °F (1936)
Degree Days  
Heating Degree Days 25    
Moisture  
Dew Point 38 °F    
Average Humidity 74    
Maximum Humidity 89    
Minimum Humidity 59    
Precipitation  
Precipitation 0.00 in - - ()
Sea Level Pressure  
Sea Level Pressure 30.35 in    
Wind  
Wind Speed 10 mph (SW)    
Max Wind Speed 23 mph    
Max Gust Speed 36 mph    
Visibility 10 miles    
Events      
Averages and records for this station are not official NWS values.
T = Trace of Precipitation, MM = Missing Value Source: NWS Daily Summary

Daily Weather History Graph

Daily Weather History Graph

Search for Another Location

Airport:

Trip Planner

Search our weather history database for the weather conditions in past years. The results will help you decide how hot, cold, wet, or windy it might be!

Date:

Astronomy

Nov. 19, 2011 Rise Set
Actual Time 6:34 AM EST 4:17 PM EST
Civil Twilight 6:04 AM EST 4:47 PM EST
Nautical Twilight 5:30 AM EST 5:21 PM EST
Astronomical Twilight 4:57 AM EST 5:54 PM EST
Moon No Moon Rise 12:38 PM EST (11/19)
Length of Visible Light 10h 43m
Length of Day
9h 43m
Last Quarter, 38% of the Moon is Illuminated
Nov 19
Last Quarter
Nov 25
New
Dec 2
First Quarter
Dec 10
Full
Dec 17
Last Quarter

Hourly Weather History & Observations

Time (EST) Temp. Windchill Dew Point Humidity Pressure Visibility Wind Dir Wind Speed Gust Speed Precip Events Conditions
12:56 AM 28.0 °F - 25.0 °F 88% 30.41 in 10.0 mi Calm Calm - N/A   Clear
1:56 AM 28.0 °F - 25.0 °F 88% 30.41 in 10.0 mi Calm Calm - N/A   Clear
2:56 AM 28.0 °F - 25.0 °F 88% 30.40 in 10.0 mi Calm Calm - N/A   Clear
3:56 AM 27.0 °F - 24.1 °F 89% 30.40 in 10.0 mi Calm Calm - N/A   Scattered Clouds
4:56 AM 27.0 °F - 24.1 °F 89% 30.40 in 10.0 mi Calm Calm - N/A   Clear
5:56 AM 43.0 °F 36.8 °F 37.0 °F 80% 30.40 in 10.0 mi SW 11.5 mph 17.3 mph N/A   Clear
6:56 AM 46.9 °F - 37.0 °F 68% 30.40 in 10.0 mi SW 15.0 mph 24.2 mph N/A   Partly Cloudy
7:56 AM 48.9 °F - 37.9 °F 66% 30.40 in 10.0 mi SW 18.4 mph 26.5 mph N/A   Clear
8:56 AM 50.0 °F - 37.9 °F 63% 30.40 in 10.0 mi SW 18.4 mph 29.9 mph N/A   Clear
9:56 AM 51.1 °F - 39.0 °F 63% 30.40 in 10.0 mi SW 20.7 mph 31.1 mph N/A   Scattered Clouds
10:56 AM 52.0 °F - 39.0 °F 61% 30.39 in 10.0 mi SW 20.7 mph 28.8 mph N/A   Clear
11:56 AM 53.1 °F - 39.0 °F 59% 30.35 in 10.0 mi SW 23.0 mph 35.7 mph N/A   Clear
1:56 PM 53.1 °F - 39.9 °F 61% 30.32 in 10.0 mi SW 20.7 mph 29.9 mph N/A   Clear
2:56 PM 52.0 °F - 39.9 °F 63% 30.31 in 10.0 mi SW 23.0 mph 29.9 mph N/A   Clear
3:56 PM 50.0 °F - 39.9 °F 68% 30.32 in 10.0 mi SW 18.4 mph 28.8 mph N/A   Clear
4:56 PM 50.0 °F - 41.0 °F 71% 30.32 in 10.0 mi SW 16.1 mph 25.3 mph N/A   Clear
5:56 PM 50.0 °F - 42.1 °F 74% 30.32 in 10.0 mi SW 18.4 mph 25.3 mph N/A   Clear
6:56 PM 51.1 °F - 43.0 °F 74% 30.31 in 10.0 mi SSW 11.5 mph - N/A   Clear
7:56 PM 52.0 °F - 43.0 °F 71% 30.29 in 10.0 mi SSW 15.0 mph 25.3 mph N/A   Clear
8:56 PM 52.0 °F - 45.0 °F 77% 30.29 in 10.0 mi SW 16.1 mph 23.0 mph N/A   Clear
9:56 PM 53.1 °F - 46.0 °F 77% 30.27 in 10.0 mi SSW 21.9 mph 28.8 mph N/A   Clear
10:56 PM 53.1 °F - 48.0 °F 83% 30.25 in 10.0 mi SSW 15.0 mph 24.2 mph N/A   Clear
11:56 PM 54.0 °F - 48.0 °F 80% 30.24 in 10.0 mi SW 16.1 mph 24.2 mph N/A   Clear